TimePDT,TemperatureF,Dew PointF,Humidity,Sea Level PressureIn,VisibilityMPH,Wind Direction,Wind SpeedMPH,Gust SpeedMPH,PrecipitationIn,Events,Conditions,WindDirDegrees,DateUTC
12:01 AM,55.4,51.8,88,30.08,1.5,SSW,3.5,-,N/A,,Overcast,200,2013-03-14 07:01:00
12:12 AM,55.4,51.8,88,30.08,2.5,Calm,Calm,-,N/A,,Overcast,0,2013-03-14 07:12:00
12:21 AM,55.4,51.8,88,30.08,3.0,Calm,Calm,-,N/A,,Overcast,0,2013-03-14 07:21:00
12:41 AM,55.4,51.8,88,30.08,1.8,SSW,3.5,-,N/A,,Overcast,200,2013-03-14 07:41:00
12:53 AM,55.9,52.0,87,30.08,1.8,Variable,3.5,-,N/A,,Overcast,0,2013-03-14 07:53:00
1:19 AM,55.4,51.8,88,30.09,0.5,Calm,Calm,-,N/A,Fog,Fog,0,2013-03-14 08:19:00
1:34 AM,55.4,51.8,88,30.09,1.5,Calm,Calm,-,N/A,,Overcast,0,2013-03-14 08:34:00
1:43 AM,55.4,51.8,88,30.09,2.5,SSE,3.5,-,N/A,,Overcast,160,2013-03-14 08:43:00
1:53 AM,55.0,52.0,89,30.09,2.0,Calm,Calm,-,N/A,,Overcast,0,2013-03-14 08:53:00
2:39 AM,55.4,51.8,88,30.08,2.0,ESE,3.5,-,N/A,,Overcast,120,2013-03-14 09:39:00
2:46 AM,55.4,51.8,88,30.08,0.8,Calm,Calm,-,N/A,,Overcast,0,2013-03-14 09:46:00
2:53 AM,55.0,51.1,86,30.08,0.5,SE,3.5,-,N/A,Fog,Fog,130,2013-03-14 09:53:00
3:53 AM,55.0,51.1,86,30.06,0.8,Calm,Calm,-,N/A,,Mist,0,2013-03-14 10:53:00
4:18 AM,55.4,51.8,88,30.05,1.2,Calm,Calm,-,N/A,,Overcast,0,2013-03-14 11:18:00
4:29 AM,55.4,51.8,88,30.06,0.8,Calm,Calm,-,N/A,,Mist,0,2013-03-14 11:29:00
4:53 AM,55.0,52.0,89,30.06,1.0,Calm,Calm,-,N/A,,Overcast,0,2013-03-14 11:53:00
5:32 AM,53.6,51.8,94,30.06,0.5,Calm,Calm,-,N/A,Fog,Fog,0,2013-03-14 12:32:00
5:48 AM,55.4,51.8,88,30.06,1.8,Calm,Calm,-,N/A,,Overcast,0,2013-03-14 12:48:00
5:53 AM,55.0,51.1,86,30.06,1.5,Calm,Calm,-,N/A,,Overcast,0,2013-03-14 12:53:00
6:12 AM,53.6,51.8,94,30.06,0.5,Calm,Calm,-,N/A,Fog,Fog,0,2013-03-14 13:12:00
6:38 AM,55.4,51.8,88,30.07,1.0,Calm,Calm,-,N/A,,Overcast,0,2013-03-14 13:38:00
6:48 AM,55.4,51.8,88,30.07,0.5,Calm,Calm,-,N/A,Fog,Fog,0,2013-03-14 13:48:00
6:53 AM,55.0,51.1,86,30.06,0.5,Calm,Calm,-,N/A,Fog,Fog,0,2013-03-14 13:53:00
7:53 AM,54.0,51.1,90,30.07,0.2,Calm,Calm,-,N/A,Fog,Fog,0,2013-03-14 14:53:00
8:35 AM,55.4,51.8,88,30.08,1.2,Calm,Calm,-,N/A,,Overcast,0,2013-03-14 15:35:00
8:51 AM,55.4,51.8,88,30.08,2.0,NW,3.5,-,N/A,,Overcast,310,2013-03-14 15:51:00
8:53 AM,55.9,51.1,84,30.08,2.0,WNW,3.5,-,N/A,,Haze,290,2013-03-14 15:53:00
9:07 AM,57.2,51.8,82,30.08,3.0,Calm,Calm,-,N/A,,Haze,0,2013-03-14 16:07:00
9:53 AM,64.0,51.1,63,30.07,4.0,Calm,Calm,-,N/A,,Haze,0,2013-03-14 16:53:00
10:53 AM,72.0,51.1,48,30.07,5.0,SSW,4.6,-,N/A,,Haze,210,2013-03-14 17:53:00
11:53 AM,78.1,52.0,40,30.06,5.0,Calm,Calm,-,N/A,,Haze,0,2013-03-14 18:53:00
12:53 PM,80.1,54.0,40,30.04,5.0,South,5.8,-,N/A,,Haze,190,2013-03-14 19:53:00
1:53 PM,80.1,55.0,42,30.02,6.0,SW,4.6,-,N/A,,Haze,220,2013-03-14 20:53:00
2:53 PM,81.0,55.0,41,30.01,8.0,Variable,3.5,-,N/A,,Clear,0,2013-03-14 21:53:00
3:53 PM,82.9,48.9,31,30.00,10.0,Variable,5.8,-,N/A,,Clear,0,2013-03-14 22:53:00
4:53 PM,81.0,46.9,30,30.00,10.0,West,5.8,-,N/A,,Clear,280,2013-03-14 23:53:00
5:53 PM,79.0,46.0,31,29.99,10.0,Variable,3.5,-,N/A,,Clear,0,2013-03-15 00:53:00
6:53 PM,72.0,46.9,41,30.00,10.0,Calm,Calm,-,N/A,,Clear,0,2013-03-15 01:53:00
7:53 PM,69.1,45.0,42,30.00,10.0,SSW,3.5,-,N/A,,Clear,210,2013-03-15 02:53:00
8:53 PM,66.9,46.0,47,30.01,10.0,WSW,3.5,-,N/A,,Clear,240,2013-03-15 03:53:00
9:53 PM,64.0,48.9,58,30.03,10.0,Calm,Calm,-,N/A,,Clear,0,2013-03-15 04:53:00
10:53 PM,62.1,51.1,67,30.04,10.0,South,3.5,-,N/A,,Clear,170,2013-03-15 05:53:00
11:53 PM,59.0,53.1,81,30.04,9.0,South,3.5,-,N/A,,Clear,190,2013-03-15 06:53:00